Location: Springfield
(37.2150°N, 93.2980°W)
Time: 16:31:04
(UTC-05:00)

Daily predictions for brighter satellites

Satellite Brightness Start Highest point End
(mag) Time Altitude Azimuth Time Altitude Azimuth Time Altitude Azimuth
Cosmos 2263 Rocket 3.5 20:14:15 10° N 20:18:42 23° ENE 20:23:05 10° ESE
NOSS 2-3 (C) 4.2 20:16:05 10° S 20:20:21 40° ESE 20:25:07 10° NE
Cosmos 2322 Rocket 2.5 20:15:21 10° S 20:20:45 46° ESE 20:26:09 10° NE
Cosmos 676 Rocket 4.1 20:16:15 10° NNW 20:21:34 71° ENE 20:26:53 10° SSE
GPS 2-05 Rocket1 2.9 20:19:28 10° W 20:22:53 66° S 20:26:12 10° E
Meteor 1-11 Rocket 4.3 20:17:39 10° SSE 20:22:56 37° E 20:28:08 10° NNE
Tiangong 1 2.4 20:21:02 10° NW 20:23:30 28° N 20:25:57 10° ENE
Cosmos 1140 Rocket 3.7 20:20:24 10° N 20:25:31 52° ENE 20:30:37 10° SE
Cosmos 614 Rocket 4.4 20:21:41 10° N 20:26:35 44° ENE 20:31:30 10° SE
S3M 4.4 20:21:03 10° N 20:27:00 43° ENE 20:32:58 10° SSE
Cosmos 1553 Rocket 4.3 20:22:17 10° N 20:28:11 46° E 20:33:58 10° SSE
SJ-6B 3.2 20:24:57 10° S 20:28:59 73° W 20:33:06 10° NNW
Spot 2 Rocket 3.9 20:25:42 10° SE 20:30:32 45° ENE 20:35:22 10° N
Cosmos 1975 Rocket 3.4 20:26:20 10° NNW 20:30:47 72° W 20:35:09 10° S
FREGAT/IRIS 4.4 20:28:01 10° SSW 20:30:49 35° W 20:33:38 10° NNW
Cosmos 1441 Rocket 4.0 20:27:21 10° NNW 20:31:00 52° W 20:34:38 10° S
Resurs 01 Rocket 1.9 20:27:29 10° SSE 20:31:47 51° ENE 20:36:07 10° N
SL-16 R/B 2.2 20:27:21 10° S 20:32:53 59° ESE 20:38:26 10° NNE
Cosmos 2151 Rocket 3.6 20:33:59 10° S 20:38:17 60° E 20:42:36 10° NNE
EXPRESS MD2 4.3 20:37:22 10° W 20:39:32 31° NNW 20:42:45 10° NE
Cosmos 44 Rocket 3.5 20:35:31 10° NW 20:40:16 69° WSW 20:45:03 10° SSE
Cosmos 1954 Rocket 4.1 20:36:21 10° NNW 20:41:43 88° ENE 20:47:02 10° SSE
DELTA 2 R/B (1) 3.9 20:39:46 10° WNW 20:45:16 58° SSW 20:50:09 13° SE
ATLAS 3B R/B 4.0 20:43:59 10° N 20:49:16 24° NE 20:53:55 12° E
Meteor 1-19 Rocket 4.3 20:47:05 10° N 20:52:56 70° E 20:58:41 10° SSE
Okean 1 4.3 20:49:34 10° NNW 20:53:26 49° W 20:57:16 10° SSW
Cosmos 2360 Rocket 2.8 20:48:31 10° SSE 20:53:29 33° ESE 20:58:26 10° NE
Cosmos 1980 Rocket 4.3 20:49:49 10° WSW 20:54:41 30° WNW 20:59:35 10° N
Cosmos 1536 Rocket 3.5 20:50:48 10° N 20:55:06 60° E 20:59:22 10° SSE
COSMOS 2428 4.3 20:55:48 14° E 20:55:48 14° E 20:58:26 10° ENE
Cosmos 1939 Rocket 3.4 20:53:53 14° SE 20:56:53 39° ENE 21:00:34 10° N
Cosmos 1536 3.0 20:53:30 10° S 20:57:26 50° E 21:01:23 10° NNE
USA 267 3.6 20:52:20 10° SSE 20:58:49 65° SW 21:05:21 10° NW
Lacrosse 5 rocket 2.3 20:56:10 10° WNW 20:59:36 37° SW 21:03:11 10° SSE
Envisat 3.0 20:54:42 10° SSE 20:59:44 68° ENE 21:04:47 10° N
NOSS 2-3 (D) 3.8 20:55:30 10° SSW 21:00:05 89° WNW 21:05:21 10° NNE
Cosmos 1741 Rocket 4.1 20:55:06 10° N 21:00:16 57° ENE 21:04:32 15° SE
Meteor 1-5 Rocket 4.2 21:02:09 10° SSE 21:07:17 51° E 21:12:24 10° NNE
H-2A R/B 4.0 21:08:23 10° ENE 21:09:17 11° ENE 21:10:29 10° NE
CZ-4B DEB 4.3 21:15:44 18° NE 21:15:44 18° NE 21:17:17 10° NNE
Meteor 2-4 Rocket 3.7 21:14:17 10° N 21:19:54 84° E 21:25:19 12° S
ATLAS 2AS CENTAUR R/B 3.0 21:18:37 10° SSW 21:26:14 87° NW 21:34:24 10° NNE
USA 186 3.6 21:23:38 10° SSW 21:26:40 32° W 21:29:44 10° NNW
Delta 2 Rocket 3.4 21:23:26 10° WSW 21:27:24 58° SSE 21:28:55 37° ESE
Cosmos 1110 Rocket 3.9 21:23:27 10° S 21:28:33 66° ESE 21:33:40 10° NNE
BREEZE M DEB (TANK) 3.1 21:20:45 10° SW 21:31:31 67° SE 21:33:38 25° ENE
Helios 1B rocket 2.3 21:27:39 10° NNE 21:31:44 63° ESE 21:33:57 25° S
SPOT 5 4.2 21:33:36 21° ENE 21:33:48 21° ENE 21:37:19 10° NNE
Lacrosse 5 2.5 21:32:22 10° WSW 21:37:21 56° NW 21:42:21 10° NE
Cosmos 1331 Rocket 3.8 21:36:25 10° S 21:41:34 77° ESE 21:46:48 10° NNE
Cosmos 883 Rocket 4.4 21:35:28 10° N 21:41:37 89° E 21:45:59 21° S
Centaur D AC-29 3.9 21:33:28 10° SW 21:42:12 17° S 21:43:39 17° S
SeaSat 1 3.5 21:43:22 10° NNE 21:48:04 45° WNW 21:52:44 10° SW
Atlas Centaur 2 3.4 21:41:26 10° W 21:49:00 41° SSW 21:51:30 32° SSE
ARGOS 3.5 21:49:54 40° E 21:50:44 43° ENE 21:55:47 10° N
Cosmos 1244 Rocket 4.4 21:49:27 31° SSE 21:52:23 63° E 21:58:26 10° NNE
Okean 1 Rocket 3.9 21:49:27 10° SSW 21:53:39 49° W 21:57:54 10° N
Cosmos 220 Rocket 4.2 21:51:58 10° NNW 21:56:15 68° WSW 21:57:12 51° SSW
YAOGAN 6 3.6 21:56:40 36° SW 21:57:28 42° W 22:00:50 10° NNW
Tiangong 1 2.9 21:56:20 10° WNW 21:57:45 26° WNW 21:57:45 26° WNW
Cosmos 1025 Rocket 3.0 21:55:16 10° N 21:59:32 79° W 22:00:09 63° SSW
Cosmos 1607 4.1 21:53:21 10° NW 21:59:48 72° WSW 22:02:27 37° S
Okean 2 3.2 21:56:45 10° N 22:00:51 89° W 22:00:54 88° SSW
Cosmos 2263 Rocket 2.9 21:57:24 10° NNW 22:02:52 49° WSW 22:05:41 27° SSW
Cosmos 2278 Rocket 4.1 22:03:11 10° NNE 22:06:20 15° NE 22:06:39 15° NE
Cosmos 1818 3.5 22:10:06 61° E 22:10:06 61° E 22:15:02 10° NE
Okean 1-7 Rocket 3.9 22:05:13 10° NNW 22:09:41 65° W 22:10:26 55° SW
Cosmos 1844 Rocket 3.3 22:04:41 10° N 22:09:59 39° ENE 22:10:09 39° ENE
SPOT 1/Viking Rocket 4.2 22:10:41 39° ENE 22:10:41 39° ENE 22:15:11 10° N
Cosmos 2237 4.2 22:05:22 10° SSW 22:11:03 85° WNW 22:16:47 10° NNE
Cosmos 1515 4.3 22:09:47 10° NNW 22:12:54 55° NNW 22:12:54 55° NNW
Cosmos 1975 4.0 22:16:24 34° NNE 22:16:24 34° NNE 22:18:45 10° N
Terra 3.7 22:16:55 18° NE 22:16:55 18° NE 22:18:58 10° NNE
Helios 1A 4.4 22:18:03 28° SW 22:19:12 33° W 22:23:02 10° NNW
MetOp-B 4.0 22:19:30 69° S 22:20:11 84° WSW 22:25:34 10° NNW
Cosmos 2219 Rocket 3.3 22:24:26 31° NE 22:24:26 31° NE 22:27:29 10° NNE
NOSS 3-2 (A) 4.5 22:16:34 10° NNW 22:23:49 47° NE 22:25:38 41° E
USA 238 DEB 3.7 22:18:56 10° NNW 22:26:04 80° ENE 22:27:24 62° SE
USA 238 3.7 22:19:02 10° NNW 22:26:11 80° ENE 22:27:30 62° SE
Cosmos 1500 4.4 22:27:02 42° NW 22:27:02 42° NW 22:30:03 10° N
Meteor 1-12 Rocket 4.0 22:26:33 81° SSE 22:26:49 84° E 22:32:28 10° N
ERS-1 Rocket 3.3 22:26:41 54° SW 22:27:17 59° W 22:32:15 10° NNW
USA 245 3.9 22:28:30 70° N 22:28:30 70° N 22:32:21 10° NNW
Cosmos 2360 Rocket 3.9 22:32:26 10° WSW 22:37:24 31° WNW 22:42:23 10° N
COSMOS 2428 2.9 22:37:39 49° SW 22:39:10 70° WNW 22:44:54 10° NNE
ATLAS 3B R/B 2.5 22:33:56 10° NW 22:40:34 71° WSW 22:41:11 67° SSW
Cosmos 1745 Rocket 3.8 22:45:49 84° NNE 22:45:49 84° NNE 22:51:47 10° N
H-2A R/B 2.4 22:49:01 58° NNW 22:49:01 58° NNW 22:53:02 10° NNW
Cosmos 1844 4.1 22:43:02 10° NNW 22:47:46 55° NNE 22:47:46 55° NNE
Cosmos 2333 Rocket 3.4 22:55:01 32° NNE 22:55:01 32° NNE 22:57:57 10° NNE
Cosmos 1238 Rocket 4.4 22:47:24 10° NNW 22:53:54 56° W 22:54:49 51° WSW
NOSS 3-2 (C) 4.1 22:55:32 10° NNW 23:03:04 62° NE 23:03:28 61° ENE
Cosmos 2237 Rocket 4.0 23:12:24 22° NNE 23:12:24 22° NNE 23:14:21 10° NNE
SPOT 5 4.4 23:12:51 31° WNW 23:12:51 31° WNW 23:16:00 10° NNW
NOSS 3-4 (A) 4.1 23:28:46 54° NNW 23:28:46 54° NNW 23:34:14 10° NNE
NOSS 3-4 (C) 4.1 23:28:58 53° NNW 23:28:58 53° NNW 23:34:20 10° NNE
CENTAUR R/B 3.8 23:22:44 10° NNW 23:30:07 40° NE 23:30:30 40° NE
Cosmos 2278 Rocket 3.7 23:45:24 10° NNW 23:48:29 34° NNW 23:48:29 34° NNW
Terra 4.2 23:55:49 20° NW 23:55:49 20° NW 23:57:25 10° NNW
